User: anonymous   Login
Location: Unspecified
(0.0000°N, 0.0000°E)
Time: 13:29:48
(UTC+00:00)
Language:

Vanguard 3 - Orbit

View from above orbital plane
View from above orbital plane
View from above satellite
View from above satellite

Ground track
Ground track

The orbit data is extracted from the following two-line orbital elements,

1    20U 59007A   19051.54293211  .00000162  00000-0  52172-4 0  9996
2    20  33.3513 102.3194 1665478 225.1955 120.0745 11.55590987174751
Epoch (UTC): 20 February 2019 13:01:49
Eccentricity: 0.1665478
inclination: 33.3513°
perigee height: 509 km
apogee height: 3262 km
right ascension of ascending node: 102.3194°
argument of perigee: 225.1955°
revolutions per day: 11.55590987
mean anomaly at epoch: 120.0745°
orbit number at epoch: 17475

The dashed part of the orbit path shows where the satellite is in the earth's shadow,  

DLR